Location: Wells
(51.2093°N, 2.6446°W)
Time: 07:57:02
(UTC+01:00)

SO-50 - Pass Details

Date: 16 March 2026
Orbit: 567 x 673 km, 64.6° (Epoch: 17 April)

Event Time Altitude Azimuth Distance (km) Brightness Sun altitude
Rises 23:37:35 0° 315° (NW) 3,023 ? -39.5°
Reaches altitude 10° 23:40:21 10° 329° (NNW) 2,114 ? -39.6°
Enters shadow 23:41:15 14° 337° (NNW) 1,860 ? -39.6°
